QPF
0.04 0.03 0.02 0.03 0.03 0.01 0.00 0.00 0.00 0.00 0.00 0.00 0.00 0.00 0.00 0.00 0.00 0.00 0.00 0.00 0.00 0.00 0.00 0.01 0.01 0.01 0.01 0.01 0.01 0.01 0.01 0.01 0.01 0.01 0.00 0.00 0.00 0.00 0.00 0.00 0.00 0.00 0.00
0.03 0.03 0.03 0.02 0.03 0.02 0.01 0.00 0.00 0.00 0.00 0.00 0.00 0.00 0.00 0.00 0.00 0.00 0.00 0.00 0.00 0.00 0.00 0.00 0.01 0.01 0.01 0.01 0.01 0.01 0.01 0.01 0.01 0.01 0.01 0.01 0.00 0.00 0.00 0.00 0.00 0.00 0.00
0.03 0.03 0.03 0.03 0.03 0.03 0.02 0.01 0.00 0.00 0.00 0.00 0.00 0.00 0.00 0.00 0.00 0.00 0.00 0.00 0.00 0.00 0.00 0.00 0.01 0.01 0.01 0.01 0.01 0.01 0.01 0.01 0.01 0.00 0.01 0.01 0.01 0.01 0.01 0.01 0.01 0.01 0.01
0.04 0.03 0.03 0.03 0.03 0.03 0.03 0.02 0.01 0.00 0.00 0.00 0.00 0.00 0.00 0.00 0.00 0.00 0.00 0.00 0.00 0.00 0.00 0.00 0.00 0.00 0.01 0.01 0.01 0.01 0.01 0.01 0.01 0.01 0.01 0.01 0.01 0.01 0.01 0.01 0.01 0.01 0.01
0.06 0.05 0.04 0.03 0.03 0.03 0.03 0.02 0.01 0.00 0.00 0.00 0.00 0.00 0.00 0.00 0.00 0.00 0.00 0.00 0.00 0.00 0.00 0.00 0.00 0.00 0.00 0.00 0.00 0.01 0.01 0.01 0.01 0.01 0.01 0.01 0.01 0.01 0.01 0.01 0.01 0.01 0.01
0.08 0.06 0.05 0.04 0.04 0.04 0.03 0.02 0.01 0.01 0.01 0.00 0.00 0.00 0.00 0.00 0.00 0.00 0.00 0.00 0.00 0.00 0.00 0.00 0.00 0.00 0.00 0.00 0.00 0.00 0.01 0.01 0.01 0.01 0.01 0.01 0.01 0.02 0.02 0.02 0.02 0.01 0.01
0.08 0.07 0.07 0.05 0.04 0.04 0.04 0.03 0.03 0.02 0.01 0.00 0.00 0.00 0.00 0.00 0.00 0.00 0.00 0.00 0.00 0.00 0.00 0.00 0.00 0.00 0.00 0.00 0.00 0.00 0.00 0.00 0.01 0.01 0.01 0.01 0.02 0.02 0.02 0.02 0.02 0.02 0.02
0.07 0.05 0.06 0.06 0.04 0.03 0.04 0.04 0.03 0.03 0.02 0.01 0.01 0.00 0.00 0.00 0.00 0.00 0.00 0.00 0.00 0.00 0.00 0.00 0.00 0.00 0.00 0.00 0.00 0.00 0.00 0.00 0.01 0.01 0.01 0.02 0.02 0.03 0.03 0.03 0.03 0.03 0.03
0.08 0.06 0.05 0.06 0.06 0.04 0.04 0.04 0.04 0.03 0.03 0.02 0.01 0.01 0.01 0.00 0.00 0.00 0.00 0.00 0.00 0.00 0.00 0.00 0.00 0.00 0.00 0.00 0.00 0.00 0.01 0.00 0.00 0.01 0.01 0.01 0.02 0.03 0.02 0.02 0.03 0.03 0.03
0.09 0.09 0.08 0.07 0.07 0.08 0.06 0.05 0.04 0.04 0.04 0.03 0.03 0.02 0.01 0.01 0.01 0.00 0.00 0.00 0.00 0.00 0.00 0.00 0.00 0.00 0.00 0.00 0.00 0.00 0.00 0.00 0.00 0.00 0.01 0.02 0.02 0.02 0.02 0.02 0.02 0.02 0.02
0.10 0.10 0.10 0.10 0.10 0.09 0.09 0.08 0.06 0.06 0.05 0.04 0.03 0.03 0.03 0.02 0.01 0.01 0.01 0.00 0.00 0.01 0.01 0.01 0.01 0.01 0.01 0.01 0.01 0.01 0.01 0.00 0.00 0.00 0.01 0.02 0.02 0.02 0.02 0.02 0.02 0.01 0.01
0.16 0.13 0.10 0.10 0.10 0.10 0.10 0.10 0.09 0.07 0.07 0.06 0.05 0.03 0.03 0.02 0.02 0.02 0.02 0.01 0.01 0.01 0.01 0.01 0.01 0.01 0.01 0.01 0.01 0.01 0.01 0.00 0.00 0.00 0.01 0.01 0.01 0.02 0.02 0.02 0.02 0.01 0.01
0.19 0.16 0.12 0.11 0.12 0.11 0.11 0.11 0.11 0.08 0.07 0.07 0.06 0.04 0.04 0.03 0.02 0.02 0.02 0.02 0.01 0.01 0.01 0.01 0.01 0.02 0.02 0.02 0.02 0.01 0.01 0.00 0.00 0.00 0.01 0.01 0.01 0.01 0.02 0.02 0.02 0.02 0.02
0.16 0.15 0.13 0.11 0.11 0.13 0.13 0.11 0.12 0.10 0.08 0.07 0.06 0.05 0.05 0.05 0.04 0.04 0.04 0.04 0.04 0.03 0.03 0.03 0.03 0.03 0.02 0.02 0.02 0.01 0.01 0.01 0.00 0.00 0.01 0.01 0.01 0.01 0.01 0.02 0.03 0.02 0.02
0.16 0.16 0.14 0.12 0.12 0.12 0.14 0.14 0.14 0.14 0.12 0.11 0.09 0.08 0.07 0.06 0.06 0.07 0.08 0.08 0.09 0.08 0.06 0.04 0.03 0.03 0.03 0.03 0.02 0.02 0.01 0.01 0.01 0.01 0.01 0.01 0.01 0.01 0.01 0.01 0.02 0.02 0.02
0.16 0.18 0.17 0.13 0.12 0.13 0.14 0.14 0.14 0.14 0.14 0.13 0.12 0.11 0.10 0.09 0.09 0.09 0.09 0.09 0.08 0.07 0.06 0.04 0.03 0.03 0.03 0.03 0.03 0.02 0.02 0.02 0.01 0.01 0.01 0.01 0.01 0.01 0.01 0.01 0.02 0.03 0.03
0.15 0.16 0.17 0.15 0.13 0.13 0.14 0.14 0.13 0.13 0.13 0.11 0.10 0.10 0.09 0.08 0.07 0.07 0.06 0.06 0.06 0.06 0.06 0.04 0.04 0.04 0.04 0.03 0.03 0.03 0.02 0.02 0.01 0.02 0.01 0.01 0.01 0.01 0.01 0.01 0.02 0.02 0.03
0.18 0.16 0.16 0.15 0.13 0.13 0.13 0.13 0.11 0.11 0.12 0.12 0.10 0.10 0.10 0.09 0.07 0.06 0.05 0.05 0.05 0.06 0.06 0.05 0.05 0.05 0.05 0.04 0.04 0.04 0.03 0.03 0.02 0.02 0.02 0.01 0.01 0.01 0.01 0.02 0.02 0.02 0.02
0.21 0.20 0.20 0.18 0.15 0.15 0.13 0.11 0.10 0.09 0.08 0.09 0.09 0.10 0.10 0.10 0.10 0.09 0.07 0.06 0.06 0.06 0.06 0.06 0.05 0.06 0.06 0.06 0.06 0.05 0.04 0.04 0.03 0.03 0.03 0.02 0.02 0.02 0.02 0.02 0.01 0.01 0.01
0.18 0.18 0.19 0.21 0.18 0.17 0.16 0.13 0.12 0.10 0.09 0.08 0.08 0.08 0.09 0.09 0.10 0.10 0.10 0.08 0.07 0.07 0.07 0.07 0.07 0.07 0.07 0.07 0.07 0.07 0.06 0.05 0.04 0.04 0.04 0.03 0.03 0.02 0.02 0.02 0.02 0.01 0.01
0.17 0.15 0.15 0.17 0.18 0.17 0.18 0.17 0.14 0.13 0.12 0.11 0.10 0.09 0.09 0.10 0.11 0.11 0.11 0.10 0.09 0.08 0.08 0.07 0.07 0.07 0.07 0.07 0.07 0.06 0.06 0.06 0.05 0.05 0.04 0.04 0.04 0.03 0.02 0.02 0.02 0.02 0.01
0.14 0.13 0.13 0.14 0.16 0.15 0.16 0.19 0.17 0.13 0.11 0.10 0.11 0.11 0.11 0.12 0.13 0.13 0.12 0.12 0.12 0.10 0.10 0.09 0.08 0.07 0.06 0.06 0.06 0.06 0.06 0.06 0.06 0.05 0.04 0.04 0.04 0.03 0.02 0.02 0.02 0.01 0.01
0.13 0.14 0.13 0.13 0.13 0.13 0.13 0.14 0.15 0.14 0.12 0.11 0.11 0.11 0.11 0.11 0.12 0.13 0.15 0.16 0.15 0.14 0.12 0.10 0.10 0.08 0.08 0.07 0.07 0.08 0.07 0.05 0.04 0.05 0.04 0.05 0.04 0.03 0.02 0.02 0.02 0.02 0.01
0.11 0.14 0.15 0.15 0.15 0.15 0.15 0.15 0.16 0.15 0.13 0.13 0.13 0.12 0.12 0.12 0.12 0.12 0.13 0.15 0.15 0.15 0.13 0.11 0.10 0.10 0.10 0.10 0.09 0.09 0.08 0.08 0.07 0.07 0.05 0.05 0.04 0.04 0.03 0.03 0.03 0.02 0.02
0.09 0.13 0.15 0.14 0.15 0.15 0.17 0.16 0.17 0.17 0.17 0.15 0.13 0.13 0.12 0.12 0.13 0.13 0.12 0.12 0.12 0.13 0.13 0.13 0.13 0.13 0.13 0.12 0.11 0.10 0.09 0.08 0.07 0.07 0.06 0.05 0.04 0.04 0.03 0.03 0.03 0.02 0.02
0.06 0.10 0.14 0.14 0.15 0.15 0.16 0.16 0.17 0.16 0.16 0.15 0.14 0.14 0.15 0.14 0.14 0.14 0.12 0.12 0.13 0.13 0.11 0.11 0.12 0.13 0.12 0.11 0.10 0.08 0.08 0.07 0.06 0.06 0.06 0.05 0.04 0.03 0.03 0.03 0.02 0.01 0.01
MSLP
1013.09 1013.98 1014.79 1015.50 1016.11 1016.63 1017.11 1017.55 1017.99 1018.43 1018.89 1019.33 1019.76 1020.16 1020.51 1020.82 1021.08 1021.30 1021.51 1021.71 1021.90 1022.10 1022.30 1022.48 1022.63 1022.75 1022.83 1022.88 1022.90 1022.91 1022.93 1022.96 1023.02 1023.11 1023.20 1023.30 1023.38 1023.41 1023.38 1023.29 1023.13 1022.92 1022.66
1012.33 1013.28 1014.18 1015.01 1015.75 1016.41 1017.01 1017.56 1018.08 1018.58 1019.05 1019.51 1019.92 1020.29 1020.60 1020.87 1021.09 1021.28 1021.46 1021.64 1021.82 1022.01 1022.20 1022.38 1022.53 1022.65 1022.73 1022.78 1022.79 1022.80 1022.82 1022.85 1022.91 1022.99 1023.09 1023.19 1023.27 1023.31 1023.30 1023.23 1023.10 1022.91 1022.69
1011.44 1012.44 1013.44 1014.39 1015.27 1016.08 1016.82 1017.49 1018.10 1018.66 1019.18 1019.64 1020.04 1020.39 1020.67 1020.90 1021.09 1021.24 1021.39 1021.54 1021.71 1021.88 1022.05 1022.22 1022.37 1022.48 1022.56 1022.61 1022.64 1022.65 1022.67 1022.70 1022.76 1022.84 1022.93 1023.02 1023.10 1023.14 1023.14 1023.10 1023.01 1022.87 1022.69
1010.49 1011.54 1012.62 1013.70 1014.72 1015.67 1016.54 1017.33 1018.03 1018.66 1019.20 1019.68 1020.09 1020.42 1020.69 1020.90 1021.07 1021.21 1021.34 1021.47 1021.61 1021.76 1021.91 1022.06 1022.20 1022.31 1022.40 1022.46 1022.49 1022.52 1022.54 1022.58 1022.63 1022.69 1022.77 1022.84 1022.91 1022.95 1022.97 1022.95 1022.90 1022.81 1022.69
1009.58 1010.66 1011.82 1012.99 1014.13 1015.20 1016.18 1017.06 1017.83 1018.51 1019.10 1019.59 1020.01 1020.36 1020.64 1020.86 1021.04 1021.19 1021.32 1021.45 1021.58 1021.71 1021.85 1021.98 1022.10 1022.21 1022.30 1022.36 1022.41 1022.44 1022.47 1022.50 1022.54 1022.58 1022.64 1022.69 1022.74 1022.79 1022.82 1022.82 1022.81 1022.77 1022.70
1008.78 1009.89 1011.09 1012.33 1013.54 1014.69 1015.74 1016.68 1017.50 1018.21 1018.82 1019.35 1019.80 1020.18 1020.50 1020.77 1021.00 1021.19 1021.35 1021.49 1021.63 1021.75 1021.88 1022.00 1022.11 1022.21 1022.29 1022.35 1022.40 1022.43 1022.46 1022.47 1022.49 1022.52 1022.55 1022.59 1022.63 1022.67 1022.71 1022.74 1022.77 1022.76 1022.73
1008.14 1009.24 1010.47 1011.73 1012.98 1014.16 1015.24 1016.20 1017.03 1017.76 1018.39 1018.94 1019.43 1019.87 1020.26 1020.61 1020.91 1021.17 1021.39 1021.58 1021.74 1021.88 1022.01 1022.12 1022.22 1022.30 1022.38 1022.43 1022.47 1022.49 1022.49 1022.49 1022.49 1022.49 1022.50 1022.52 1022.56 1022.61 1022.67 1022.72 1022.77 1022.80 1022.78
1007.63 1008.74 1009.95 1011.21 1012.46 1013.62 1014.69 1015.63 1016.46 1017.18 1017.82 1018.40 1018.94 1019.45 1019.92 1020.36 1020.76 1021.11 1021.41 1021.66 1021.86 1022.03 1022.17 1022.29 1022.38 1022.46 1022.52 1022.56 1022.57 1022.57 1022.55 1022.52 1022.49 1022.47 1022.47 1022.49 1022.53 1022.59 1022.68 1022.76 1022.83 1022.86 1022.84
1007.24 1008.33 1009.53 1010.76 1011.96 1013.09 1014.11 1015.01 1015.80 1016.51 1017.15 1017.76 1018.35 1018.92 1019.48 1020.01 1020.50 1020.95 1021.33 1021.65 1021.92 1022.13 1022.30 1022.44 1022.54 1022.62 1022.67 1022.69 1022.68 1022.65 1022.60 1022.54 1022.48 1022.44 1022.43 1022.46 1022.52 1022.62 1022.73 1022.84 1022.93 1022.96 1022.91
1006.90 1007.98 1009.14 1010.34 1011.49 1012.56 1013.52 1014.37 1015.13 1015.81 1016.45 1017.07 1017.70 1018.32 1018.94 1019.55 1020.12 1020.64 1021.10 1021.50 1021.82 1022.10 1022.31 1022.49 1022.62 1022.72 1022.77 1022.78 1022.76 1022.70 1022.61 1022.52 1022.44 1022.39 1022.39 1022.44 1022.54 1022.67 1022.83 1022.97 1023.06 1023.08 1022.99
1006.55 1007.62 1008.77 1009.92 1011.02 1012.04 1012.95 1013.76 1014.48 1015.14 1015.77 1016.39 1017.03 1017.68 1018.34 1018.99 1019.61 1020.18 1020.70 1021.15 1021.54 1021.88 1022.17 1022.41 1022.59 1022.73 1022.81 1022.83 1022.79 1022.71 1022.60 1022.48 1022.39 1022.34 1022.35 1022.43 1022.57 1022.76 1022.96 1023.13 1023.23 1023.22 1023.09
1006.16 1007.24 1008.37 1009.50 1010.56 1011.54 1012.42 1013.19 1013.89 1014.53 1015.15 1015.77 1016.40 1017.05 1017.71 1018.36 1018.99 1019.58 1020.13 1020.62 1021.08 1021.49 1021.86 1022.18 1022.45 1022.65 1022.78 1022.83 1022.81 1022.72 1022.60 1022.47 1022.36 1022.32 1022.35 1022.47 1022.66 1022.90 1023.14 1023.33 1023.43 1023.40 1023.20
1005.74 1006.83 1007.96 1009.07 1010.12 1011.08 1011.94 1012.70 1013.38 1014.01 1014.62 1015.22 1015.83 1016.45 1017.08 1017.69 1018.29 1018.87 1019.43 1019.96 1020.47 1020.96 1021.42 1021.85 1022.22 1022.51 1022.72 1022.83 1022.84 1022.77 1022.64 1022.51 1022.41 1022.37 1022.42 1022.58 1022.81 1023.09 1023.37 1023.58 1023.68 1023.61 1023.36
1005.32 1006.43 1007.56 1008.67 1009.71 1010.66 1011.52 1012.28 1012.97 1013.60 1014.20 1014.78 1015.35 1015.92 1016.48 1017.04 1017.58 1018.13 1018.67 1019.22 1019.78 1020.35 1020.91 1021.46 1021.95 1022.36 1022.66 1022.85 1022.91 1022.87 1022.77 1022.64 1022.55 1022.52 1022.60 1022.78 1023.05 1023.36 1023.66 1023.88 1023.96 1023.86 1023.55
1004.99 1006.10 1007.22 1008.31 1009.35 1010.30 1011.17 1011.94 1012.64 1013.27 1013.86 1014.41 1014.94 1015.45 1015.95 1016.43 1016.91 1017.41 1017.93 1018.49 1019.09 1019.74 1020.41 1021.07 1021.69 1022.22 1022.63 1022.90 1023.04 1023.05 1022.98 1022.87 1022.79 1022.78 1022.87 1023.07 1023.35 1023.68 1023.99 1024.21 1024.27 1024.14 1023.78
1004.81 1005.89 1006.98 1008.04 1009.06 1010.01 1010.87 1011.65 1012.35 1012.99 1013.57 1014.10 1014.59 1015.05 1015.47 1015.89 1016.31 1016.75 1017.25 1017.82 1018.46 1019.17 1019.93 1020.70 1021.44 1022.09 1022.61 1022.98 1023.19 1023.26 1023.23 1023.16 1023.10 1023.10 1023.21 1023.41 1023.70 1024.03 1024.33 1024.54 1024.58 1024.42 1024.04
1004.85 1005.85 1006.87 1007.88 1008.85 1009.76 1010.60 1011.38 1012.08 1012.71 1013.28 1013.80 1014.25 1014.66 1015.04 1015.40 1015.77 1016.18 1016.66 1017.23 1017.91 1018.67 1019.50 1020.36 1021.19 1021.94 1022.56 1023.01 1023.30 1023.44 1023.47 1023.44 1023.41 1023.44 1023.55 1023.76 1024.04 1024.36 1024.64 1024.83 1024.86 1024.68 1024.30
1005.14 1006.02 1006.93 1007.83 1008.71 1009.56 1010.35 1011.09 1011.77 1012.39 1012.95 1013.44 1013.88 1014.26 1014.61 1014.94 1015.28 1015.67 1016.14 1016.72 1017.41 1018.21 1019.09 1020.00 1020.90 1021.72 1022.41 1022.94 1023.31 1023.52 1023.61 1023.64 1023.65 1023.71 1023.84 1024.05 1024.33 1024.62 1024.88 1025.05 1025.06 1024.89 1024.53
1005.66 1006.38 1007.13 1007.89 1008.65 1009.39 1010.10 1010.78 1011.41 1011.99 1012.53 1013.01 1013.43 1013.80 1014.13 1014.45 1014.78 1015.17 1015.64 1016.22 1016.92 1017.74 1018.64 1019.58 1020.52 1021.38 1022.12 1022.72 1023.15 1023.43 1023.60 1023.69 1023.76 1023.86 1024.02 1024.24 1024.50 1024.78 1025.02 1025.17 1025.18 1025.03 1024.70
1006.36 1006.89 1007.46 1008.05 1008.66 1009.26 1009.86 1010.43 1011.00 1011.53 1012.02 1012.47 1012.88 1013.24 1013.58 1013.90 1014.24 1014.64 1015.12 1015.70 1016.40 1017.22 1018.11 1019.06 1020.00 1020.88 1021.66 1022.30 1022.80 1023.16 1023.40 1023.58 1023.72 1023.87 1024.06 1024.30 1024.56 1024.82 1025.05 1025.18 1025.20 1025.07 1024.80
1007.19 1007.52 1007.90 1008.30 1008.73 1009.18 1009.64 1010.10 1010.56 1011.01 1011.45 1011.86 1012.25 1012.60 1012.94 1013.28 1013.64 1014.05 1014.54 1015.12 1015.82 1016.62 1017.50 1018.42 1019.36 1020.24 1021.04 1021.72 1022.28 1022.71 1023.04 1023.30 1023.53 1023.74 1023.98 1024.24 1024.50 1024.76 1024.97 1025.10 1025.13 1025.04 1024.83
1008.09 1008.23 1008.42 1008.64 1008.90 1009.18 1009.48 1009.81 1010.15 1010.51 1010.87 1011.22 1011.57 1011.91 1012.25 1012.59 1012.97 1013.39 1013.89 1014.48 1015.17 1015.95 1016.81 1017.71 1018.62 1019.50 1020.32 1021.04 1021.65 1022.16 1022.57 1022.92 1023.23 1023.52 1023.81 1024.09 1024.37 1024.62 1024.83 1024.96 1025.00 1024.95 1024.81
1009.00 1008.98 1009.01 1009.07 1009.16 1009.28 1009.43 1009.62 1009.83 1010.07 1010.34 1010.62 1010.92 1011.22 1011.55 1011.89 1012.28 1012.71 1013.22 1013.82 1014.50 1015.26 1016.10 1016.98 1017.88 1018.75 1019.58 1020.33 1020.99 1021.57 1022.07 1022.51 1022.89 1023.25 1023.59 1023.90 1024.19 1024.45 1024.65 1024.78 1024.84 1024.82 1024.74
1009.88 1009.74 1009.65 1009.58 1009.53 1009.51 1009.52 1009.57 1009.65 1009.77 1009.93 1010.13 1010.35 1010.62 1010.91 1011.25 1011.63 1012.08 1012.59 1013.19 1013.87 1014.63 1015.45 1016.32 1017.21 1018.08 1018.92 1019.70 1020.41 1021.05 1021.62 1022.12 1022.58 1022.99 1023.37 1023.71 1024.02 1024.28 1024.48 1024.62 1024.69 1024.71 1024.67
1010.70 1010.50 1010.31 1010.15 1009.99 1009.86 1009.75 1009.68 1009.63 1009.64 1009.69 1009.79 1009.94 1010.15 1010.41 1010.72 1011.10 1011.55 1012.07 1012.68 1013.37 1014.13 1014.95 1015.81 1016.70 1017.57 1018.42 1019.22 1019.97 1020.65 1021.26 1021.82 1022.32 1022.77 1023.18 1023.55 1023.86 1024.13 1024.34 1024.49 1024.58 1024.62 1024.63
1011.45 1011.20 1010.97 1010.74 1010.51 1010.29 1010.09 1009.91 1009.76 1009.66 1009.62 1009.63 1009.71 1009.86 1010.07 1010.37 1010.74 1011.19 1011.72 1012.35 1013.05 1013.82 1014.65 1015.52 1016.40 1017.28 1018.13 1018.94 1019.70 1020.39 1021.03 1021.61 1022.14 1022.61 1023.04 1023.42 1023.74 1024.02 1024.24 1024.40 1024.51 1024.59 1024.63
Thickness
5691 5691 5690 5690 5691 5690 5689 5688 5687 5686 5685 5684 5684 5683 5682 5682 5681 5681 5680 5680 5679 5678 5676 5675 5674 5672 5671 5669 5667 5665 5663 5661 5659 5656 5654 5652 5650 5647 5645 5643 5640 5637 5635
5687 5687 5686 5686 5686 5686 5685 5684 5683 5682 5681 5680 5679 5679 5678 5678 5677 5677 5676 5676 5675 5674 5672 5671 5670 5669 5667 5666 5664 5662 5659 5657 5655 5653 5651 5648 5646 5643 5641 5638 5636 5633 5631
5681 5682 5681 5681 5681 5680 5680 5679 5678 5677 5676 5676 5675 5674 5674 5674 5673 5673 5672 5672 5671 5670 5668 5667 5666 5665 5663 5662 5660 5658 5656 5654 5651 5649 5647 5645 5642 5640 5637 5634 5632 5629 5626
5675 5675 5676 5676 5675 5675 5674 5674 5673 5672 5672 5671 5670 5670 5669 5669 5669 5668 5668 5667 5666 5665 5664 5663 5662 5660 5659 5658 5656 5654 5652 5650 5648 5646 5643 5641 5639 5636 5633 5630 5628 5625 5623
5668 5670 5670 5671 5670 5669 5669 5669 5668 5668 5667 5665 5665 5664 5664 5664 5664 5664 5663 5663 5662 5661 5660 5659 5657 5656 5654 5653 5652 5650 5648 5646 5644 5642 5640 5637 5635 5633 5630 5627 5624 5621 5618
5662 5663 5664 5664 5664 5664 5664 5664 5663 5662 5662 5660 5659 5658 5658 5658 5659 5659 5658 5658 5657 5656 5655 5654 5653 5651 5649 5648 5646 5645 5643 5641 5639 5638 5635 5633 5630 5628 5626 5623 5621 5618 5614
5654 5656 5658 5658 5659 5659 5659 5659 5657 5656 5654 5653 5651 5648 5650 5652 5653 5653 5653 5653 5652 5651 5650 5649 5648 5646 5644 5643 5641 5639 5638 5636 5634 5633 5631 5629 5626 5624 5622 5619 5617 5614 5611
5648 5650 5652 5653 5654 5654 5653 5652 5652 5650 5649 5648 5646 5642 5641 5643 5646 5648 5647 5647 5647 5645 5644 5643 5642 5640 5639 5637 5635 5634 5632 5631 5629 5627 5626 5624 5622 5620 5617 5615 5612 5609 5606
5642 5644 5646 5647 5648 5648 5648 5648 5647 5646 5644 5642 5643 5641 5637 5638 5639 5640 5640 5640 5640 5639 5638 5637 5636 5634 5633 5631 5630 5628 5626 5625 5623 5621 5620 5618 5616 5615 5612 5610 5606 5603 5601
5634 5638 5639 5641 5642 5643 5643 5643 5642 5641 5640 5637 5635 5637 5638 5638 5633 5632 5632 5633 5632 5631 5631 5631 5630 5628 5627 5625 5624 5623 5621 5619 5617 5615 5614 5612 5610 5608 5606 5603 5600 5598 5595
5627 5630 5632 5634 5635 5636 5637 5637 5636 5635 5635 5634 5632 5631 5629 5629 5629 5627 5626 5625 5624 5625 5624 5624 5623 5621 5620 5619 5617 5616 5614 5613 5611 5609 5607 5605 5604 5602 5599 5597 5594 5591 5588
5618 5621 5624 5626 5628 5629 5630 5631 5631 5630 5629 5629 5628 5627 5626 5624 5624 5622 5620 5619 5618 5618 5616 5616 5615 5614 5612 5611 5610 5609 5607 5605 5604 5602 5601 5599 5596 5594 5592 5590 5587 5584 5582
5610 5613 5616 5618 5620 5621 5623 5623 5623 5624 5623 5622 5623 5622 5622 5622 5620 5618 5615 5611 5609 5608 5607 5607 5607 5606 5605 5603 5602 5600 5599 5598 5596 5595 5593 5591 5589 5587 5585 5582 5579 5577 5575
5604 5606 5607 5610 5612 5613 5614 5614 5615 5616 5616 5616 5616 5616 5615 5615 5614 5612 5610 5605 5600 5599 5599 5599 5599 5598 5597 5595 5593 5592 5591 5590 5588 5586 5585 5583 5581 5579 5577 5574 5572 5569 5567
5596 5597 5599 5601 5603 5605 5605 5606 5607 5608 5609 5609 5609 5608 5608 5609 5607 5606 5604 5602 5597 5593 5594 5592 5590 5590 5588 5586 5585 5583 5582 5581 5579 5577 5575 5574 5571 5569 5568 5565 5562 5560 5559
5587 5589 5591 5593 5595 5597 5598 5597 5599 5600 5601 5602 5601 5600 5600 5601 5599 5597 5597 5595 5593 5590 5588 5586 5582 5580 5578 5577 5576 5574 5572 5571 5569 5567 5566 5564 5563 5561 5559 5556 5553 5551 5549
5578 5580 5583 5585 5587 5589 5590 5591 5592 5592 5593 5593 5593 5593 5593 5592 5591 5590 5588 5587 5585 5582 5579 5575 5572 5570 5568 5567 5565 5563 5562 5561 5560 5558 5557 5555 5553 5551 5549 5547 5544 5542 5541
5568 5571 5574 5577 5579 5581 5582 5584 5585 5585 5585 5585 5585 5584 5585 5583 5582 5582 5581 5579 5578 5576 5572 5568 5564 5561 5559 5557 5555 5553 5551 5551 5550 5549 5548 5546 5544 5541 5539 5537 5535 5534 5532
5557 5561 5565 5568 5571 5573 5574 5575 5576 5577 5577 5578 5577 5576 5576 5575 5574 5573 5573 5572 5570 5568 5565 5562 5558 5553 5550 5547 5544 5542 5540 5540 5540 5539 5538 5536 5534 5532 5530 5528 5526 5524 5523
5546 5550 5554 5558 5561 5563 5563 5565 5567 5567 5568 5567 5567 5567 5568 5567 5568 5566 5565 5564 5562 5559 5556 5554 5550 5545 5542 5538 5536 5533 5530 5530 5529 5529 5528 5526 5525 5523 5521 5519 5517 5516 5514
5535 5539 5543 5546 5549 5551 5553 5554 5556 5557 5556 5557 5557 5557 5558 5560 5560 5559 5557 5556 5554 5551 5548 5545 5541 5537 5533 5531 5530 5527 5523 5520 5518 5517 5517 5516 5514 5513 5511 5509 5508 5506 5505
5524 5527 5531 5535 5537 5540 5543 5543 5545 5545 5546 5546 5546 5546 5547 5549 5550 5550 5550 5549 5548 5544 5541 5538 5534 5533 5531 5527 5524 5520 5515 5510 5508 5507 5506 5505 5503 5502 5501 5499 5498 5496 5495
5513 5515 5519 5522 5524 5527 5529 5532 5533 5534 5534 5534 5535 5535 5536 5537 5538 5538 5538 5538 5537 5536 5536 5534 5531 5529 5526 5523 5518 5513 5510 5506 5504 5500 5497 5495 5492 5491 5490 5489 5488 5487 5486
5499 5502 5505 5508 5511 5514 5517 5520 5521 5522 5522 5522 5524 5524 5525 5525 5526 5526 5526 5524 5523 5524 5524 5524 5524 5523 5520 5517 5513 5510 5504 5495 5490 5488 5489 5486 5482 5481 5480 5478 5477 5477 5476
5486 5489 5492 5495 5498 5502 5505 5507 5509 5510 5510 5510 5511 5512 5513 5513 5514 5514 5514 5511 5510 5510 5510 5511 5512 5510 5509 5506 5502 5497 5491 5487 5482 5478 5477 5476 5471 5469 5469 5468 5467 5466 5465
5475 5477 5479 5482 5485 5488 5491 5494 5496 5499 5499 5499 5499 5501 5501 5502 5502 5501 5501 5500 5498 5498 5497 5497 5496 5495 5494 5492 5491 5489 5486 5481 5475 5471 5468 5466 5462 5460 5458 5456 5456 5456 5455